Date String (YYYY-MM-DD hh:mm:ss) UTC,Instrument flags,absolute air pressure of the measurement (hPa),sample flow rate (lpm),inlet stack bypass flow (lpm),air temperature of the measurement (°C),ambient temperature measured by the external sensor (°C),aerosol sample conditioner tube jacket temperature (°C),OPC LED temperature (°C),internal box temperature (°C),relative humidity of the measurement (%),span deviation,mass concentration of particles derived from Lorenz-Mie calculation of OPC scattering (μg/m³),mass concentration of particles derived from Lorenz-Mie calculation of OPC scattering (μg/m³),mass concentration of particles derived from Lorenz-Mie calculation of OPC scattering (μg/m³)
DateTimeUTC,F1_M11,P_M11,Q1_M11,Q2_M11,T1_M11,T2_M11,T3_M11,T4_M11,T5_M11,U1_M11,ZSPAN_M11,X2_M11,X0_M11,X1_M11
2024-06-04 00:00:00,SystemResetWarning,0820.2,5.00,000.00,029.5,028.9,000.0,037.6,031.3,016.0,0000.0,0004.41,0013.56,0003.39
2024-06-04 00:01:00,SystemResetWarning,0819.9,5.00,000.00,029.6,029.1,000.0,037.6,031.4,015.4,0000.0,0004.41,0014.01,0003.40
2024-06-04 00:02:00,SystemResetWarning,0819.7,5.01,000.00,029.7,029.2,000.0,037.6,031.5,015.7,0000.0,0004.46,0013.97,0003.42
2024-06-04 00:03:00,SystemResetWarning,0820.0,4.99,000.00,029.6,028.0,000.0,037.7,030.9,015.4,0000.0,0004.46,0014.84,0003.41
2024-06-04 00:04:00,SystemResetWarning,0819.8,5.01,000.00,029.2,025.8,000.0,037.8,029.8,016.0,0000.0,0004.44,0015.54,0003.42
2024-06-04 00:05:00,SystemResetWarning,0819.8,5.01,000.00,028.9,025.7,000.0,037.7,029.6,015.5,0000.0,0004.43,0015.86,0003.42
2024-06-04 00:06:00,SystemResetWarning,0820.2,4.99,000.00,028.8,026.2,000.0,037.6,029.9,014.8,0000.0,0004.41,0015.51,0003.43
2024-06-04 00:07:00,SystemResetWarning,0820.2,5.00,000.00,028.8,026.7,000.0,037.5,030.2,015.0,0000.0,0004.39,0014.39,0003.42
2024-06-04 00:08:00,SystemResetWarning,0820.2,5.00,000.00,028.9,027.1,000.0,037.5,030.4,015.6,0000.0,0004.36,0013.96,0003.41
2024-06-04 00:09:00,SystemResetWarning,0819.9,5.00,000.00,029.0,027.5,000.0,037.4,030.6,016.1,0000.0,0004.34,0013.76,0003.41
2024-06-04 00:10:00,SystemResetWarning,0819.8,4.99,000.00,029.0,027.9,000.0,037.4,030.8,014.9,0000.0,0004.35,0013.41,0003.40
2024-06-04 00:11:00,SystemResetWarning,0819.8,4.99,000.00,029.1,028.2,000.0,037.4,030.9,015.0,0000.0,0004.40,0013.51,0003.40
2024-06-04 00:12:00,SystemResetWarning,0819.7,5.00,000.00,029.2,028.4,000.0,037.4,031.0,015.2,0000.0,0004.43,0013.42,0003.39
2024-06-04 00:13:00,SystemResetWarning,0819.9,4.99,000.00,029.3,028.6,000.0,037.4,031.1,014.9,0000.0,0004.37,0013.35,0003.37
2024-06-04 00:14:00,SystemResetWarning,0819.8,5.01,000.00,029.3,028.8,000.0,037.4,031.2,015.1,0000.0,0004.36,0012.45,0003.38
2024-06-04 00:15:00,SystemResetWarning,0819.7,5.01,000.00,029.4,028.9,000.0,037.5,031.3,014.7,0000.0,0004.36,0011.31,0003.38
2024-06-04 00:16:00,SystemResetWarning,0819.7,5.00,000.00,029.5,029.0,000.0,037.5,031.4,014.6,0000.0,0004.36,0011.35,0003.37
2024-06-04 00:17:00,SystemResetWarning,0819.7,5.00,000.00,029.6,029.2,000.0,037.5,031.4,014.5,0000.0,0004.40,0011.83,0003.36
2024-06-04 00:18:00,SystemResetWarning,0819.8,5.00,000.00,029.7,029.3,000.0,037.6,031.5,014.9,0000.0,0004.40,0011.82,0003.35
2024-06-04 00:19:00,SystemResetWarning,0819.7,4.99,000.00,029.7,029.1,000.0,037.7,031.4,015.0,0000.0,0004.42,0012.18,0003.36
2024-06-04 00:20:00,SystemResetWarning,0819.9,4.99,000.00,029.4,026.8,000.0,037.7,030.3,015.3,0000.0,0004.45,0012.99,0003.35
2024-06-04 00:21:00,SystemResetWarning,0819.8,5.01,000.00,029.0,025.4,000.0,037.7,029.6,015.7,0000.0,0004.41,0013.07,0003.36
2024-06-04 00:22:00,SystemResetWarning,0819.6,5.02,000.00,028.8,025.9,000.0,037.7,029.7,015.7,0000.0,0004.40,0013.75,0003.35
2024-06-04 00:23:00,SystemResetWarning,0820.0,4.99,000.00,028.8,026.4,000.0,037.6,030.0,015.4,0000.0,0004.44,0013.63,0003.36
2024-06-04 00:24:00,SystemResetWarning,0820.2,5.00,000.00,028.9,026.9,000.0,037.5,030.3,016.2,0000.0,0004.47,0014.66,0003.36
2024-06-04 00:25:00,SystemResetWarning,0819.7,5.01,000.00,028.9,027.3,000.0,037.4,030.5,016.0,0000.0,0004.49,0015.74,0003.36
2024-06-04 00:26:00,SystemResetWarning,0819.7,5.00,000.00,029.0,027.7,000.0,037.4,030.6,015.7,0000.0,0004.53,0015.51,0003.36
2024-06-04 00:27:00,SystemResetWarning,0819.7,5.00,000.00,029.1,028.0,000.0,037.4,030.8,015.8,0000.0,0004.52,0015.79,0003.36
2024-06-04 00:28:00,SystemResetWarning,0819.8,5.00,000.00,029.1,028.2,000.0,037.4,030.9,015.6,0000.0,0004.55,0016.50,0003.37
2024-06-04 00:29:00,SystemResetWarning,0820.0,5.00,000.00,029.2,028.5,000.0,037.4,031.0,015.9,0000.0,0004.59,0016.79,0003.37
2024-06-04 00:30:00,SystemResetWarning,0819.8,5.00,000.00,029.3,028.7,000.0,037.4,031.1,016.1,0000.0,0004.62,0017.02,0003.37
2024-06-04 00:31:00,SystemResetWarning,0819.9,5.00,000.00,029.4,028.8,000.0,037.4,031.2,015.7,0000.0,0004.61,0016.61,0003.37
2024-06-04 00:32:00,SystemResetWarning,0820.3,4.99,000.00,029.5,029.0,000.0,037.5,031.3,015.3,0000.0,0004.69,0016.97,0003.38
2024-06-04 00:33:00,SystemResetWarning,0820.2,5.00,000.00,029.5,029.1,000.0,037.5,031.4,015.4,0000.0,0004.70,0017.34,0003.37
2024-06-04 00:34:00,SystemResetWarning,0819.8,5.00,000.00,029.6,029.2,000.0,037.6,031.5,015.4,0000.0,0004.68,0018.80,0003.36
2024-06-04 00:35:00,SystemResetWarning,0819.9,5.00,000.00,029.7,029.0,000.0,037.6,031.4,015.2,0000.0,0004.66,0019.24,0003.36
2024-06-04 00:36:00,SystemResetWarning,0819.8,4.99,000.00,029.4,026.9,000.0,037.7,030.3,015.6,0000.0,0004.66,0019.57,0003.35
2024-06-04 00:37:00,SystemResetWarning,0819.7,5.02,000.00,029.0,025.5,000.0,037.7,029.6,015.6,0000.0,0004.63,0019.82,0003.34
2024-06-04 00:38:00,SystemResetWarning,0819.8,5.00,000.00,028.8,025.9,000.0,037.7,029.7,015.7,0000.0,0004.60,0019.17,0003.33
2024-06-04 00:39:00,SystemResetWarning,0819.8,4.99,000.00,028.8,026.4,000.0,037.5,030.0,015.8,0000.0,0004.55,0018.49,0003.33
2024-06-04 00:40:00,SystemResetWarning,0820.0,5.00,000.00,028.8,026.9,000.0,037.4,030.2,015.6,0000.0,0004.51,0019.39,0003.33
2024-06-04 00:41:00,SystemResetWarning,0820.0,5.01,000.00,028.9,027.3,000.0,037.4,030.4,015.4,0000.0,0004.47,0018.94,0003.34
2024-06-04 00:42:00,SystemResetWarning,0820.3,5.00,000.00,029.0,027.7,000.0,037.4,030.6,015.2,0000.0,0004.44,0018.62,0003.34
2024-06-04 00:43:00,SystemResetWarning,0820.1,5.00,000.00,029.0,028.0,000.0,037.4,030.8,014.6,0000.0,0004.40,0018.50,0003.34
2024-06-04 00:44:00,SystemResetWarning,0820.3,4.99,000.00,029.1,028.2,000.0,037.4,030.9,014.8,0000.0,0004.41,0017.98,0003.35
2024-06-04 00:45:00,SystemResetWarning,0819.9,5.00,000.00,029.2,028.4,000.0,037.4,031.0,014.7,0000.0,0004.40,0016.49,0003.35
2024-06-04 00:46:00,SystemResetWarning,0820.0,5.00,000.00,029.3,028.6,000.0,037.4,031.1,014.7,0000.0,0004.41,0015.72,0003.36
2024-06-04 00:47:00,SystemResetWarning,0819.8,5.00,000.00,029.3,028.8,000.0,037.4,031.2,014.8,0000.0,0004.42,0014.91,0003.36
2024-06-04 00:48:00,SystemResetWarning,0819.9,4.99,000.00,029.4,028.9,000.0,037.5,031.3,015.0,0000.0,0004.41,0015.76,0003.37
2024-06-04 00:49:00,SystemResetWarning,0819.9,5.00,000.00,029.5,029.1,000.0,037.5,031.4,014.9,0000.0,0004.45,0016.15,0003.36
2024-06-04 00:50:00,SystemResetWarning,0819.9,5.00,000.00,029.6,029.2,000.0,037.5,031.4,014.4,0000.0,0004.48,0016.31,0003.36
2024-06-04 00:51:00,SystemResetWarning,0820.0,5.00,000.00,029.7,029.3,000.0,037.6,031.5,014.4,0000.0,0004.46,0015.46,0003.35
2024-06-04 00:52:00,SystemResetWarning,0819.9,4.99,000.00,029.6,028.1,000.0,037.7,030.9,014.2,0000.0,0004.46,0015.68,0003.35
2024-06-04 00:53:00,SystemResetWarning,0819.8,5.02,000.00,029.2,026.5,000.0,037.7,030.1,014.5,0000.0,0004.48,0015.85,0003.35
2024-06-04 00:54:00,SystemResetWarning,0819.8,4.99,000.00,029.1,026.8,000.0,037.7,030.2,014.4,0000.0,0004.44,0016.30,0003.35
2024-06-04 00:55:00,SystemResetWarning,0820.1,4.99,000.00,029.1,027.1,000.0,037.6,030.4,014.4,0000.0,0004.44,0016.20,0003.35
2024-06-04 00:56:00,SystemResetWarning,0819.9,5.00,000.00,029.1,027.5,000.0,037.6,030.6,014.4,0000.0,0004.40,0016.96,0003.35
2024-06-04 00:57:00,SystemResetWarning,0819.9,5.01,000.00,029.2,027.8,000.0,037.5,030.8,014.5,0000.0,0004.37,0017.59,0003.34
2024-06-04 00:58:00,SystemResetWarning,0819.9,5.01,000.00,029.3,028.1,000.0,037.5,031.0,014.6,0000.0,0004.33,0016.83,0003.34
2024-06-04 00:59:00,SystemResetWarning,0819.9,4.99,000.00,029.3,028.4,000.0,037.5,031.1,014.8,0000.0,0004.34,0015.54,0003.34
